Probability
6 3 0 0 0 0 0 0 0 0 0 0 0 3 3 10 0 0 0 0 0 0 0 0 0 0 0 0 0 0 0 0 0 0 0 0 0 0
6 0 3 0 0 0 0 0 3 0 0 0 0 3 3 0 0 0 0 0 0 0 0 0 0 0 0 0 0 0 0 0 0 0 0 0 0 0
0 0 0 0 0 0 0 0 0 3 0 0 0 3 3 0 0 0 0 0 0 0 0 0 0 0 0 0 0 0 0 0 0 0 0 0 0 0
0 0 0 0 0 0 0 0 0 3 0 0 0 0 3 3 3 0 0 0 0 0 0 0 0 0 0 0 0 0 0 0 0 0 0 0 0 0
0 0 0 0 0 0 0 0 0 0 0 0 0 0 0 0 0 0 0 0 0 0 0 0 0 0 0 0 0 0 0 0 0 0 0 0 0 0
0 0 0 0 0 3 0 0 0 0 0 0 0 0 0 0 0 3 0 0 0 0 0 0 0 0 0 0 0 0 0 0 0 0 0 0 0 0
3 3 3 0 0 0 0 0 0 0 3 0 0 0 0 0 0 0 0 0 0 0 0 0 0 0 0 0 0 0 0 0 0 0 0 0 0 0
3 6 6 3 0 0 0 0 0 0 0 0 0 0 3 0 0 0 0 0 0 0 0 0 0 0 0 0 0 0 0 0 0 0 0 0 0 0
6 6 3 3 0 0 0 0 0 0 0 0 0 0 3 3 3 0 0 0 0 0 0 0 0 0 0 0 0 0 0 0 0 0 0 0 0 0
3 6 6 6 3 3 3 0 0 0 0 0 0 0 0 3 3 0 0 0 0 0 0 0 0 0 0 0 0 0 0 0 0 0 0 0 0 0
0 3 3 3 0 0 0 0 3 3 0 0 0 0 0 0 0 0 0 0 0 0 0 0 0 0 0 0 0 0 0 0 0 0 0 0 0 0
3 3 0 0 0 0 0 0 3 0 0 0 0 0 0 0 0 0 0 0 0 0 0 3 0 0 0 0 0 0 0 0 0 0 0 0 0 0
3 3 3 0 0 0 0 0 0 0 0 0 0 0 0 0 0 0 0 0 0 0 0 0 0 0 0 0 0 0 0 0 0 0 0 0 0 0
3 6 6 0 0 0 0 0 0 0 0 0 0 0 0 0 0 0 3 3 13 0 3 3 0 0 0 3 0 0 0 0 0 0 0 0 0 0
0 0 0 0 0 0 0 0 0 0 0 0 0 0 0 0 0 3 6 16 10 6 3 10 6 3 3 0 0 0 0 0 3 0 3 3 0 0
0 0 0 0 0 0 0 0 0 0 0 0 0 0 0 0 0 0 3 6 6 0 10 16 19 13 10 3 0 0 0 0 0 3 10 10 3 0
3 10 10 3 0 0 3 3 3 0 0 0 0 0 0 0 0 3 0 0 0 0 0 16 19 16 10 6 0 0 3 3 3 3 23 6 0 3
0 0 6 3 6 3 3 10 6 6 6 0 0 0 0 0 0 3 6 10 6 3 3 3 13 10 6 0 0 0 0 3 3 6 6 0 0 0
0 0 6 3 3 3 6 3 10 10 13 3 3 3 3 0 0 3 3 0 0 0 3 0 3 0 0 0 0 0 0 3 3 3 0 6 0 3
0 0 3 3 6 6 3 3 3 6 10 3 3 3 3 0 0 0 0 0 0 0 0 0 3 3 0 0 0 0 0 0 0 0 0 0 3 0
0 3 6 10 3 6 6 6 6 0 3 3 6 3 3 3 0 0 0 0 0 0 0 0 0 0 0 0 0 0 0 0 0 0 0 0 0 0
0 0 0 3 3 3 3 3 3 3 3 3 3 3 0 0 0 0 0 0 0 0 0 0 0 0 0 0 0 0 0 0 0 0 0 0 0 0
0 0 0 0 0 0 0 0 0 0 3 3 3 0 0 0 0 0 0 0 0 0 0 0 0 0 0 0 0 0 0 0 0 0 0 0 0 0
Height
5865 5864 5864 5864 5863 5863 5862 5862 5862 5860 5859 5858 5857 5856 5855 5854 5853 5852 5851 5850 5850 5849 5848 5848 5848 5847 5847 5847 5847 5847 5847 5848 5848 5848 5849 5849 5850 5850
5863 5863 5862 5862 5861 5861 5860 5860 5859 5858 5857 5856 5855 5853 5852 5851 5850 5849 5848 5847 5846 5845 5844 5843 5843 5842 5842 5841 5841 5841 5841 5841 5841 5841 5841 5841 5842 5842
5861 5861 5860 5860 5859 5859 5858 5857 5856 5855 5854 5853 5852 5851 5849 5848 5847 5845 5844 5843 5842 5841 5840 5839 5837 5837 5836 5835 5835 5834 5834 5833 5833 5833 5833 5833 5833 5834
5859 5859 5858 5858 5857 5857 5856 5855 5854 5853 5851 5850 5849 5848 5846 5845 5843 5842 5840 5839 5838 5836 5835 5833 5832 5831 5830 5829 5829 5828 5827 5826 5825 5825 5824 5824 5824 5824
5857 5856 5856 5855 5855 5854 5853 5852 5851 5849 5848 5847 5845 5844 5842 5841 5839 5838 5836 5835 5833 5832 5830 5829 5827 5826 5824 5823 5822 5821 5820 5819 5818 5817 5816 5816 5816 5815
5854 5853 5853 5852 5851 5850 5849 5848 5847 5846 5844 5843 5841 5840 5838 5837 5835 5833 5832 5830 5828 5826 5825 5823 5821 5820 5818 5817 5815 5814 5812 5811 5810 5809 5808 5807 5807 5807
5851 5850 5849 5848 5848 5847 5845 5844 5843 5841 5840 5838 5837 5835 5834 5832 5830 5828 5826 5825 5823 5821 5819 5817 5815 5813 5812 5810 5808 5806 5805 5803 5802 5801 5800 5799 5798 5797
5847 5846 5845 5844 5843 5842 5841 5840 5838 5837 5835 5833 5832 5830 5828 5826 5824 5822 5820 5819 5817 5815 5812 5810 5808 5806 5804 5802 5800 5799 5797 5795 5793 5792 5790 5789 5788 5788
5842 5841 5841 5840 5838 5837 5836 5835 5833 5831 5830 5828 5826 5824 5822 5820 5818 5816 5814 5812 5809 5807 5805 5803 5800 5798 5796 5794 5792 5790 5788 5786 5784 5783 5781 5780 5779 5778
5838 5837 5836 5834 5833 5832 5830 5829 5827 5825 5823 5821 5820 5818 5816 5814 5811 5809 5807 5805 5802 5799 5797 5795 5792 5790 5787 5785 5783 5781 5779 5777 5775 5773 5771 5770 5768 5767
5832 5831 5830 5828 5827 5825 5824 5822 5820 5818 5816 5814 5812 5810 5808 5806 5803 5801 5799 5796 5794 5791 5789 5786 5783 5781 5778 5775 5773 5771 5769 5767 5765 5763 5761 5759 5758 5756
5826 5824 5823 5822 5820 5818 5817 5815 5813 5811 5809 5807 5805 5802 5800 5798 5795 5792 5790 5787 5785 5782 5779 5776 5773 5770 5768 5765 5762 5760 5757 5756 5754 5752 5750 5748 5746 5744
5818 5817 5816 5814 5812 5811 5809 5807 5805 5802 5800 5798 5796 5793 5791 5788 5785 5783 5780 5777 5774 5772 5769 5766 5763 5759 5756 5754 5751 5748 5746 5743 5741 5740 5738 5736 5734 5732
5811 5810 5808 5807 5805 5803 5801 5798 5796 5794 5791 5789 5786 5784 5781 5778 5775 5772 5769 5766 5763 5760 5757 5754 5751 5748 5744 5742 5739 5736 5733 5731 5728 5726 5724 5723 5721 5719
5803 5802 5800 5798 5796 5794 5792 5789 5787 5784 5782 5779 5776 5773 5770 5767 5764 5761 5757 5754 5751 5748 5745 5741 5738 5735 5732 5729 5727 5724 5721 5718 5715 5713 5711 5708 5707 5705
5795 5793 5791 5789 5786 5784 5782 5779 5777 5774 5771 5769 5766 5763 5759 5756 5752 5749 5745 5742 5739 5736 5732 5729 5725 5722 5718 5716 5713 5710 5707 5704 5702 5699 5697 5694 5692 5690
5785 5784 5781 5779 5776 5774 5771 5769 5766 5763 5760 5757 5754 5751 5747 5744 5740 5737 5733 5729 5725 5722 5719 5716 5712 5709 5705 5702 5699 5696 5693 5690 5687 5685 5683 5680 5679 5677
5775 5773 5770 5768 5765 5763 5760 5757 5754 5751 5748 5745 5742 5738 5735 5731 5727 5724 5720 5716 5712 5708 5705 5702 5698 5694 5691 5688 5685 5682 5679 5676 5674 5671 5668 5666 5665 5663
5764 5761 5759 5756 5753 5751 5748 5745 5742 5739 5736 5732 5729 5725 5721 5718 5714 5710 5706 5702 5698 5695 5691 5687 5683 5680 5677 5675 5672 5667 5665 5662 5659 5657 5654 5652 5650 5649
5752 5750 5747 5744 5741 5738 5735 5732 5729 5726 5723 5719 5715 5712 5708 5704 5700 5696 5692 5688 5685 5681 5677 5673 5669 5665 5662 5660 5657 5654 5650 5647 5645 5642 5640 5638 5636 5635
5740 5737 5734 5732 5729 5726 5722 5719 5716 5712 5709 5705 5701 5698 5694 5690 5686 5682 5678 5674 5670 5666 5662 5659 5655 5651 5647 5644 5642 5640 5636 5632 5630 5628 5625 5623 5622 5621
5728 5725 5722 5719 5716 5712 5709 5705 5702 5698 5695 5691 5687 5683 5679 5675 5671 5668 5664 5659 5655 5651 5647 5644 5640 5636 5632 5629 5626 5625 5622 5619 5616 5613 5611 5609 5607 5607
5714 5711 5708 5705 5702 5698 5695 5691 5687 5683 5680 5676 5673 5669 5665 5661 5657 5653 5649 5645 5641 5636 5632 5629 5625 5621 5618 5615 5612 5610 5607 5605 5602 5600 5599 5596 5595 5593
Wind_Speed
6 7 6 6 7 7 8 8 9 10 10 11 11 12 12 13 13 14 14 15 15 17 18 19 20 21 22 23 23 24 25 26 28 29 30 30 31 31
6 6 6 6 7 7 7 8 9 9 10 10 11 11 12 13 13 14 14 15 15 16 18 19 20 21 22 22 23 24 25 25 27 28 29 30 31 32
6 6 6 7 7 7 8 9 9 10 11 11 11 12 12 13 14 14 14 15 16 17 18 19 20 21 21 23 24 25 25 27 28 29 30 31 32 33
7 7 7 8 8 8 9 10 11 11 12 12 13 13 13 14 14 15 16 17 17 18 19 20 20 21 22 23 23 24 25 26 28 29 30 32 33 33
9 9 9 9 10 10 11 11 12 13 13 14 14 14 15 15 16 16 17 18 19 19 19 20 21 21 22 23 24 25 26 27 28 29 30 30 32 33
10 11 11 12 12 12 13 13 14 14 15 15 16 16 16 17 17 18 18 19 20 21 21 21 22 22 23 24 25 26 27 28 28 29 30 31 32 33
13 13 13 14 14 15 15 15 16 16 17 17 17 18 18 19 19 20 20 21 22 23 23 24 24 24 25 26 26 27 28 28 29 29 30 31 32 33
15 15 16 16 16 17 17 18 18 19 19 19 20 20 21 21 21 22 22 23 24 24 25 26 26 27 27 28 28 29 29 30 30 30 31 32 33 33
17 17 18 18 18 19 19 20 20 21 21 22 22 23 23 24 24 24 25 25 26 27 28 28 29 29 29 30 30 30 31 31 32 32 32 33 33 34
18 19 20 20 20 21 21 22 23 23 24 24 24 25 26 26 27 28 28 29 29 30 30 30 31 31 31 32 32 32 32 32 32 33 34 34 35 35
20 21 22 22 23 23 24 24 25 26 26 27 27 28 28 29 30 31 31 31 31 32 32 32 32 33 34 34 34 35 35 35 35 35 35 36 36 36
23 23 24 25 25 26 26 27 28 28 29 29 30 31 31 32 33 33 34 34 34 34 35 35 36 36 36 37 37 37 37 37 37 37 38 38 38 39
25 25 26 26 26 27 28 28 29 30 31 31 32 33 34 35 36 36 37 37 38 37 37 38 38 39 39 39 39 40 40 40 40 40 40 40 40 41
26 27 27 28 28 28 29 30 31 32 32 33 34 35 36 37 38 38 39 39 40 40 40 40 40 40 41 41 41 41 41 42 42 42 42 42 42 42
28 29 29 30 30 31 32 33 33 34 35 36 36 37 38 39 40 40 41 42 42 42 42 42 42 42 42 42 42 42 42 42 43 43 43 43 43 43
30 31 31 32 34 34 35 36 36 36 37 38 39 40 40 41 41 42 43 43 43 42 43 43 43 43 43 43 43 43 43 43 43 43 43 43 43 43
33 34 35 36 36 37 38 38 39 39 40 41 41 42 42 43 43 44 44 44 44 44 44 44 44 44 45 45 44 44 44 44 43 43 43 43 42 42
36 36 37 38 39 40 40 41 41 42 42 42 43 43 44 44 45 46 45 45 45 45 45 45 45 45 45 45 46 45 44 44 44 43 43 43 43 43
38 39 40 41 41 41 42 42 43 43 44 44 44 45 46 46 46 46 45 45 45 45 46 46 46 46 46 45 45 45 45 44 44 44 44 44 43 43
40 41 41 41 42 43 44 45 45 45 45 45 45 46 47 47 47 47 47 46 46 46 46 46 46 46 46 46 45 45 45 45 44 44 44 44 43 43
41 41 42 43 44 44 45 46 46 46 46 47 47 47 47 47 47 47 47 47 47 48 47 47 47 47 47 47 46 44 45 45 45 44 43 42 42 41
42 43 43 44 45 45 46 47 47 47 48 48 48 47 47 47 47 47 48 48 48 48 47 47 47 46 46 45 45 44 43 43 43 43 42 42 42 41
44 45 45 45 46 47 47 46 46 47 47 47 47 47 47 47 48 48 48 48 48 48 47 46 45 44 44 44 44 43 42 42 41 41 40 40 40 39
Wind_Direction
267 268 270 277 283 287 287 288 292 294 295 296 298 297 295 293 291 290 290 288 286 284 282 278 276 273 271 271 270 269 267 266 265 263 263 263 263 262
271 277 280 282 286 288 290 291 295 296 297 299 301 300 296 293 294 293 294 293 291 290 286 282 280 278 276 273 272 272 269 268 268 267 266 265 264 265
272 276 279 283 285 286 291 294 297 299 300 299 299 300 298 297 295 296 295 296 296 293 291 287 283 281 279 277 276 276 273 271 269 268 268 266 266 266
273 278 280 283 285 286 289 293 297 299 300 300 299 299 299 300 299 297 297 296 296 294 293 290 286 284 281 280 280 279 278 276 273 271 269 268 268 268
275 279 282 284 285 286 289 292 295 298 298 298 299 300 300 301 301 299 297 297 296 296 295 293 290 287 286 285 283 283 282 280 278 276 275 272 271 269
278 280 281 283 284 286 289 291 293 294 296 296 296 297 298 300 300 301 299 298 297 297 297 295 292 290 289 288 286 284 283 282 280 279 277 275 274 272
280 282 283 283 284 285 288 289 291 292 293 294 295 295 295 297 298 299 299 298 297 296 296 296 294 291 290 289 288 286 284 282 281 281 280 278 276 275
281 283 285 285 285 286 287 289 290 291 292 292 293 293 293 294 296 297 297 297 297 297 297 296 295 292 290 290 289 287 285 284 283 282 280 279 277 277
283 284 286 286 286 286 288 289 290 290 290 290 291 291 292 292 293 294 295 295 296 297 296 295 294 293 292 290 289 288 286 286 285 283 281 280 279 277
284 285 287 288 287 287 287 288 289 289 289 289 290 290 290 291 292 293 294 294 294 295 295 294 294 294 293 291 288 287 287 286 285 285 283 282 281 280
283 284 285 286 286 286 287 288 288 289 288 288 289 290 290 291 293 294 294 294 294 293 293 293 292 292 292 291 289 287 286 285 284 284 284 283 282 281
281 283 285 286 286 287 287 288 288 289 289 288 288 289 290 291 292 292 293 293 292 292 292 292 291 290 290 289 289 288 286 285 284 283 283 283 282 282
283 283 285 285 286 288 288 289 290 290 290 289 289 290 290 290 290 291 291 291 291 291 290 290 290 290 289 288 287 287 286 285 284 283 283 282 282 281
283 283 285 286 286 287 288 290 290 291 291 291 291 291 290 291 292 292 292 291 291 291 290 290 290 289 288 288 287 286 286 285 285 284 284 283 282 281
281 283 284 285 286 287 288 290 290 291 291 292 292 292 292 292 293 293 293 292 291 290 290 290 289 289 288 288 288 287 286 285 284 284 283 283 282 281
281 282 283 284 286 286 288 290 290 290 291 292 292 292 292 292 293 294 293 292 291 291 290 290 290 289 288 288 288 288 287 285 284 283 283 282 281 281
282 283 284 284 285 286 287 288 289 290 291 292 292 292 293 292 292 293 293 293 292 291 291 290 289 289 289 289 288 288 287 286 285 284 283 282 282 282
282 283 283 283 285 286 287 288 289 290 291 292 293 293 294 294 293 293 292 292 292 292 291 291 290 289 288 288 288 287 286 286 285 284 282 281 281 280
282 283 283 285 286 286 288 289 290 291 291 292 292 293 293 293 293 293 292 292 292 291 291 291 290 289 288 287 287 287 287 285 284 283 282 281 281 280
283 283 284 285 286 287 288 289 290 291 291 292 292 292 292 292 292 292 292 292 291 291 290 290 290 289 288 287 287 287 286 285 284 284 283 282 281 280
285 285 285 286 287 287 288 289 290 290 290 290 290 291 292 292 292 292 292 292 291 291 290 290 290 289 289 289 288 287 285 284 284 283 282 282 282 281
286 287 287 287 287 288 289 290 290 290 290 290 290 290 291 291 292 292 293 292 292 292 291 291 291 290 289 288 288 287 286 285 284 282 282 283 283 282
287 287 287 288 289 290 290 290 290 290 290 290 290 291 291 292 292 292 293 293 293 293 293 292 291 290 288 288 287 286 286 285 283 281 282 282 282 282